CFG7JT EDDF-LKPR

Flight info

Callsign CFG7JT
Flight time N/A
Altitude 29000
Route SULUS7S SULUS Z650 TONSU Z35 ODOMO DCT LOMKI
Aircraft A320/M-SDE3FGHIJ1LORVWXYZ/LB1

Departure

Time 2026-04-16 11:52
Airport Frankfurt Main Airport (EDDF)

Arrival

Time N/A
Airport Václav Havel Airport Prague (LKPR)
Time Latitude Longitude Altitude Speed Heading
2026-04-16 11:21 50.04545 8.56740 364 ft 0 kts 295°
2026-04-16 11:42 50.04539 8.56758 362 ft 3 kts 296°
2026-04-16 11:42 50.04531 8.56786 362 ft 3 kts 283°
2026-04-16 11:42 50.04530 8.56813 362 ft 2 kts 256°
2026-04-16 11:42 50.04535 8.56843 360 ft 3 kts 249°
2026-04-16 11:43 50.04544 8.56870 365 ft 3 kts 233°
2026-04-16 11:43 50.04557 8.56891 359 ft 3 kts 204°
2026-04-16 11:43 50.04561 8.56895 363 ft 3 kts 194°
2026-04-16 11:43 50.04542 8.56888 363 ft 3 kts 193°
2026-04-16 11:44 50.04528 8.56883 360 ft 1 kts 193°
2026-04-16 11:46 50.04507 8.56875 359 ft 7 kts 194°
2026-04-16 11:46 50.04450 8.56821 361 ft 14 kts 244°
2026-04-16 11:46 50.04407 8.56640 361 ft 22 kts 250°
2026-04-16 11:46 50.04350 8.56404 359 ft 25 kts 249°
2026-04-16 11:47 50.04293 8.56162 359 ft 24 kts 249°
2026-04-16 11:47 50.04234 8.55919 361 ft 24 kts 249°
2026-04-16 11:47 50.04176 8.55675 357 ft 23 kts 249°
2026-04-16 11:47 50.04121 8.55446 357 ft 23 kts 250°
2026-04-16 11:48 50.04062 8.55201 357 ft 25 kts 250°
2026-04-16 11:48 50.04003 8.54952 358 ft 24 kts 249°
2026-04-16 11:48 50.03943 8.54702 351 ft 25 kts 250°
2026-04-16 11:48 50.03887 8.54468 351 ft 21 kts 249°
2026-04-16 11:49 50.03831 8.54306 350 ft 17 kts 234°
2026-04-16 11:49 50.03776 8.54124 348 ft 21 kts 250°
2026-04-16 11:49 50.03721 8.53897 351 ft 24 kts 250°
2026-04-16 11:49 50.03664 8.53653 345 ft 21 kts 250°
2026-04-16 11:50 50.03611 8.53449 339 ft 21 kts 250°
2026-04-16 11:50 50.03558 8.53225 337 ft 21 kts 249°
2026-04-16 11:50 50.03471 8.53104 337 ft 15 kts 204°
2026-04-16 11:50 50.03410 8.52952 336 ft 19 kts 249°
2026-04-16 11:51 50.03360 8.52744 331 ft 22 kts 250°
2026-04-16 11:51 50.03321 8.52600 334 ft 8 kts 220°
2026-04-16 11:51 50.03219 8.52595 336 ft 35 kts 180°
2026-04-16 11:51 50.02691 8.52600 336 ft 114 kts 180°
2026-04-16 11:52 50.01704 8.52610 567 ft 153 kts 179°
2026-04-16 11:52 50.00639 8.52620 1372 ft 155 kts 182°
2026-04-16 11:52 49.99517 8.52626 2068 ft 171 kts 181°
2026-04-16 11:52 49.98251 8.52729 2594 ft 195 kts 171°
2026-04-16 11:53 49.96900 8.53538 3103 ft 222 kts 148°
2026-04-16 11:53 49.95752 8.55216 4000 ft 233 kts 127°
2026-04-16 11:53 49.94914 8.57426 4976 ft 240 kts 120°
2026-04-16 11:53 49.94230 8.59811 5977 ft 246 kts 106°
2026-04-16 11:54 49.93967 8.62506 6653 ft 269 kts 93°
2026-04-16 11:54 49.93841 8.65496 7408 ft 284 kts 98°
2026-04-16 11:54 49.93293 8.68455 8387 ft 289 kts 116°
2026-04-16 11:54 49.92170 8.71052 9434 ft 292 kts 135°
2026-04-16 11:55 49.90596 8.73054 10455 ft 296 kts 147°
2026-04-16 11:55 49.88882 8.75040 10941 ft 321 kts 138°
2026-04-16 11:55 49.87532 8.77965 11298 ft 349 kts 119°
2026-04-16 11:55 49.86329 8.81375 11604 ft 373 kts 120°
2026-04-16 11:56 49.85025 8.84997 11823 ft 396 kts 120°
2026-04-16 11:56 49.83640 8.88808 12188 ft 413 kts 120°
2026-04-16 11:56 49.82217 8.92708 12847 ft 420 kts 120°
2026-04-16 11:56 49.80789 8.96616 13539 ft 426 kts 120°
2026-04-16 11:57 49.79319 9.00632 14208 ft 432 kts 120°
2026-04-16 11:57 49.77834 9.04696 14819 ft 437 kts 120°
2026-04-16 11:57 49.76470 9.08927 15438 ft 441 kts 113°
2026-04-16 11:57 49.75517 9.13456 16033 ft 446 kts 104°
2026-04-16 11:58 49.74772 9.18141 16598 ft 450 kts 104°
2026-04-16 11:58 49.74020 9.22865 17143 ft 455 kts 104°
2026-04-16 11:58 49.73254 9.27633 17683 ft 459 kts 104°
2026-04-16 11:58 49.72474 9.32437 18192 ft 463 kts 104°
2026-04-16 11:59 49.71691 9.37218 18672 ft 467 kts 104°
2026-04-16 11:59 49.70888 9.42102 19089 ft 471 kts 104°
2026-04-16 11:59 49.70078 9.47019 19502 ft 474 kts 104°
2026-04-16 11:59 49.69263 9.51972 19898 ft 478 kts 104°
2026-04-16 12:00 49.68439 9.56961 20278 ft 481 kts 104°
2026-04-16 12:00 49.67803 9.62043 20641 ft 484 kts 96°
2026-04-16 12:00 49.67639 9.67229 20999 ft 485 kts 87°
2026-04-16 12:00 49.67953 9.72424 21356 ft 486 kts 78°
2026-04-16 12:01 49.68728 9.77503 21706 ft 487 kts 72°
2026-04-16 12:01 49.69633 9.82561 22050 ft 490 kts 72°
2026-04-16 12:01 49.70534 9.87649 22379 ft 492 kts 72°
2026-04-16 12:02 49.73114 9.97323 22996 ft 491 kts 57°
2026-04-16 12:02 49.75007 10.01712 23272 ft 490 kts 51°
2026-04-16 12:02 49.77004 10.05990 23569 ft 493 kts 51°
2026-04-16 12:02 49.79006 10.10306 23805 ft 495 kts 51°
2026-04-16 12:03 49.80987 10.14612 24502 ft 483 kts 51°
2026-04-16 12:03 49.82890 10.18780 25655 ft 465 kts 51°
2026-04-16 12:03 49.84720 10.22798 26801 ft 451 kts 50°
2026-04-16 12:03 49.86524 10.26750 27518 ft 448 kts 50°
2026-04-16 12:04 49.88308 10.30637 28044 ft 449 kts 50°
2026-04-16 12:04 49.90126 10.34581 28521 ft 452 kts 50°
2026-04-16 12:04 49.91960 10.38566 28869 ft 454 kts 50°
2026-04-16 12:04 49.93790 10.42554 29143 ft 455 kts 50°
2026-04-16 12:05 49.95620 10.46559 29263 ft 452 kts 50°
2026-04-16 12:05 49.97401 10.50489 29256 ft 440 kts 50°
2026-04-16 12:05 50.00884 10.58204 29258 ft 433 kts 50°
2026-04-16 12:06 50.04200 10.66048 29257 ft 438 kts 60°
2026-04-16 12:06 50.05273 10.70494 29259 ft 443 kts 72°
2026-04-16 12:06 50.05780 10.75244 29258 ft 447 kts 84°
2026-04-16 12:07 50.05700 10.80028 29255 ft 450 kts 96°
2026-04-16 12:07 50.05017 10.84782 29258 ft 451 kts 108°
2026-04-16 12:07 50.03053 10.94056 29256 ft 451 kts 108°
2026-04-16 12:08 50.01091 11.03328 29257 ft 451 kts 108°
2026-04-16 12:08 49.99117 11.12587 29252 ft 451 kts 108°
2026-04-16 12:09 49.97270 11.21837 29247 ft 451 kts 101°
2026-04-16 12:09 49.96707 11.31490 29244 ft 449 kts 91°
2026-04-16 12:10 49.96409 11.41185 29237 ft 449 kts 91°
2026-04-16 12:10 49.96087 11.50876 29232 ft 449 kts 92°
2026-04-16 12:11 49.95757 11.60566 29234 ft 449 kts 91°
2026-04-16 12:11 49.95436 11.70186 29230 ft 449 kts 92°
2026-04-16 12:12 49.95101 11.79880 29229 ft 450 kts 92°
2026-04-16 12:12 49.94747 11.89571 29229 ft 449 kts 92°
2026-04-16 12:13 49.94429 11.99260 29230 ft 449 kts 91°
2026-04-16 12:13 49.94252 12.08879 29225 ft 449 kts 90°
2026-04-16 12:14 49.94092 12.18556 29222 ft 448 kts 90°
2026-04-16 12:14 49.93885 12.28231 29217 ft 448 kts 91°
2026-04-16 12:15 49.93647 12.37905 29220 ft 448 kts 91°
2026-04-16 12:15 49.93382 12.47573 29215 ft 448 kts 91°
2026-04-16 12:16 49.93100 12.57160 29202 ft 448 kts 92°
2026-04-16 12:16 49.92806 12.66815 29208 ft 448 kts 91°
2026-04-16 12:17 49.92507 12.76477 29208 ft 448 kts 92°
2026-04-16 12:17 49.92206 12.86134 29200 ft 448 kts 92°
2026-04-16 12:18 49.92054 12.90893 29049 ft 448 kts 92°
2026-04-16 12:18 49.91897 12.95712 28543 ft 445 kts 92°
2026-04-16 12:18 49.91741 13.00497 27893 ft 443 kts 92°
2026-04-16 12:18 49.91585 13.05254 27253 ft 441 kts 92°
2026-04-16 12:19 49.91425 13.09988 26629 ft 438 kts 92°
2026-04-16 12:19 49.91264 13.14692 26033 ft 436 kts 92°
2026-04-16 12:19 49.91101 13.19371 25445 ft 433 kts 92°
2026-04-16 12:19 49.90937 13.24016 24926 ft 429 kts 92°
2026-04-16 12:20 49.90776 13.28561 24399 ft 426 kts 92°
2026-04-16 12:20 49.90612 13.33127 23874 ft 423 kts 92°
2026-04-16 12:20 49.90447 13.37673 23292 ft 420 kts 92°
2026-04-16 12:20 49.90383 13.42180 22776 ft 415 kts 85°
2026-04-16 12:21 49.90822 13.46563 22263 ft 408 kts 73°
2026-04-16 12:21 49.91769 13.50672 21749 ft 401 kts 62°
2026-04-16 12:21 49.93154 13.54381 21243 ft 394 kts 51°
2026-04-16 12:21 49.94805 13.57744 20731 ft 390 kts 49°
2026-04-16 12:22 49.95894 13.59942 20394 ft 388 kts 49°
2026-04-16 12:22 49.98056 13.64322 19706 ft 384 kts 49°
2026-04-16 12:22 49.99676 13.67612 19192 ft 382 kts 49°
2026-04-16 12:22 50.01283 13.70880 18677 ft 380 kts 49°
2026-04-16 12:23 50.02884 13.74139 18120 ft 378 kts 49°
2026-04-16 12:23 50.03938 13.76287 17777 ft 376 kts 49°
2026-04-16 12:23 50.05514 13.79502 17286 ft 372 kts 49°
2026-04-16 12:23 50.07069 13.82686 16778 ft 369 kts 51°